Location: Pasadena, ca
(34.1243°N, 118.1037°W)
Time: 08:54:05
(UTC-07:00)

Tiangong 1 - Pass Details

Date: 07 October 2017
Orbit: 293 x 320 km, 42.8° (Epoch: 21 October)

Event Time Altitude Azimuth Distance (km) Brightness Sun altitude
Rises 18:47:20 0° 264° (W) 2,042 7.9 -4.8°
Reaches altitude 10° 18:49:28 10° 277° (W) 1,207 5.3 -5.3°
Maximum altitude 18:51:52 28° 340° (NNW) 631 2.4 -5.8°
Drops below altitude 10° 18:54:14 10° 42° (NE) 1,195 3.1 -6.2°
Enters shadow 18:55:16 - 50° (NE) 1,588 3.7 -6.5°
